Atwater, CA

10:52 AM PDT on June 26, 2017 (GMT -0700)
Castle

Weather History for KMER - July, 2013

Change the Weather History Date:

Saturday, July 27, 2013

  Actual Average (KMCE) Record (KMCE)
Temperature  
Mean Temperature 82 °F -  
Max Temperature 98 °F 98 °F 106 °F (2016)
Min Temperature 66 °F 61 °F 56 °F (2010)
Cooling Degree Days 17    
Growing Degree Days 32 (Base 50)    
Moisture  
Dew Point 52 °F    
Average Humidity 43    
Maximum Humidity 64    
Minimum Humidity 17    
Precipitation  
Precipitation 0.00 in - - ()
Sea Level Pressure  
Sea Level Pressure 29.88 in    
Wind  
Wind Speed 8 mph (NNW)    
Max Wind Speed 12 mph    
Max Gust Speed -    
Visibility 10 miles    
Events      
Averages and records for this station are not official NWS values.
T = Trace of Precipitation, MM = Missing Value Source: NWS Daily Summary

Daily Weather History Graph

Daily Weather History Graph

Search for Another Location

Airport or City:

Trip Planner

Search our weather history database for the weather conditions in past years. The results will help you decide how hot, cold, wet, or windy it might be!

Date:

Astronomy

Jul. 27, 2013 Rise Set
Actual Time 6:02 AM PDT 8:14 PM PDT
Civil Twilight 5:33 AM PDT 8:43 PM PDT
Nautical Twilight 4:57 AM PDT 9:19 PM PDT
Astronomical Twilight 4:18 AM PDT 9:58 PM PDT
Moon 11:13 PM PDT (7/27) 11:39 AM PDT (7/27)
Length of Visible Light 15h 09m
Length of Day
14h 11m
Waning Gibbous, 70% of the Moon is Illuminated
Jul 27
Waning Gibbous
Jul 29
Last Quarter
Aug 6
New
Aug 14
First Quarter
Aug 20
Full

Hourly Weather History & Observations

Time (PDT) Temp. Heat Index Dew Point Humidity Pressure Visibility Wind Dir Wind Speed Gust Speed Precip Events Conditions
12:15 AM 77.0 °F - 51.8 °F 41% 29.94 in 10.0 mi NNE 10.4 mph - N/A   Clear
12:35 AM 75.2 °F - 51.8 °F 44% 29.94 in 10.0 mi North - - N/A   Clear
12:55 AM 75.2 °F - 48.2 °F 38% 29.93 in 10.0 mi NNE 9.2 mph - N/A   Clear
1:15 AM 75.2 °F - 48.2 °F 38% 29.93 in 10.0 mi NNE 8.1 mph - N/A   Clear
1:35 AM 75.2 °F - 48.2 °F 38% 29.92 in 10.0 mi NNE 8.1 mph - N/A   Clear
1:55 AM 73.4 °F - 48.2 °F 41% 29.93 in 10.0 mi North - - N/A   Clear
2:15 AM 71.6 °F - 48.2 °F 43% 29.92 in 10.0 mi NNW 6.9 mph - N/A   Clear
2:35 AM 71.6 °F - 48.2 °F 43% 29.92 in 10.0 mi NW 6.9 mph - N/A   Clear
2:55 AM 71.6 °F - 51.8 °F 50% 29.91 in 10.0 mi NW 8.1 mph - N/A   Clear
3:15 AM 69.8 °F - 53.6 °F 56% 29.91 in 10.0 mi NNW 8.1 mph - N/A   Clear
3:35 AM 69.8 °F - 53.6 °F 56% 29.91 in 10.0 mi NNW 6.9 mph - N/A   Clear
3:55 AM 69.8 °F - 51.8 °F 53% 29.91 in 10.0 mi North 6.9 mph - N/A   Clear
4:15 AM 68.0 °F - 51.8 °F 56% 29.91 in 10.0 mi NNW 6.9 mph - N/A   Clear
4:35 AM 68.0 °F - 51.8 °F 56% 29.91 in 10.0 mi NNW 5.8 mph - N/A   Clear
4:55 AM 68.0 °F - 51.8 °F 56% 29.91 in 10.0 mi NNW 6.9 mph - N/A   Clear
5:15 AM 68.0 °F - 51.8 °F 56% 29.92 in 10.0 mi NW 6.9 mph - N/A   Clear
5:35 AM 68.0 °F - 51.8 °F 56% 29.92 in 10.0 mi NNW 5.8 mph - N/A   Clear
5:55 AM 66.2 °F - 53.6 °F 64% 29.92 in 10.0 mi NNW 6.9 mph - N/A   Clear
6:15 AM 66.2 °F - 53.6 °F 64% 29.93 in 10.0 mi NNW 9.2 mph - N/A   Clear
6:35 AM 66.2 °F - 53.6 °F 64% 29.93 in 10.0 mi North 5.8 mph - N/A   Clear
6:45 AM 66.2 °F - 53.6 °F 64% 29.94 in 10.0 mi NNW 6.9 mph - N/A   Clear
6:55 AM 66.2 °F - 53.6 °F 64% 29.93 in 10.0 mi North 6.9 mph - N/A   Clear
7:45 AM 71.6 °F - 53.6 °F 53% 29.94 in 10.0 mi NNW 6.9 mph - N/A   Clear
8:45 AM 78.8 °F - 51.8 °F 39% 29.95 in 10.0 mi NNW 6.9 mph - N/A   Clear
9:45 AM 84.2 °F 82.8 °F 53.6 °F 35% 29.94 in 10.0 mi WNW 6.9 mph - N/A   Clear
10:45 AM 86.0 °F 84.2 °F 53.6 °F 33% 29.93 in 10.0 mi WNW 6.9 mph - N/A   Clear
11:45 AM 89.6 °F - 39.2 °F 17% 29.92 in 10.0 mi NW 8.1 mph - N/A   Clear
12:45 PM 93.2 °F - 46.4 °F 20% 29.90 in 10.0 mi NW 8.1 mph - N/A   Clear
1:45 PM 95.0 °F - 50.0 °F 22% 29.88 in 10.0 mi NNW 6.9 mph - N/A   Partly Cloudy
2:45 PM 96.8 °F - 51.8 °F 22% 29.85 in 10.0 mi NNW 9.2 mph - N/A   Clear
3:45 PM 98.6 °F - 50.0 °F 19% 29.83 in 10.0 mi North 9.2 mph - N/A   Partly Cloudy
4:45 PM 98.6 °F - 46.4 °F 17% 29.81 in 10.0 mi NNW 8.1 mph - N/A   Partly Cloudy
5:45 PM 96.8 °F - 51.8 °F 22% 29.80 in 10.0 mi North 10.4 mph - N/A   Partly Cloudy
6:45 PM 93.2 °F - 51.8 °F 24% 29.79 in 10.0 mi North 8.1 mph - N/A   Partly Cloudy
7:45 PM 89.6 °F 87.3 °F 53.6 °F 29% 29.79 in 10.0 mi North 5.8 mph - N/A   Clear
8:45 PM 82.4 °F 81.7 °F 55.4 °F 39% 29.79 in 10.0 mi NNW 11.5 mph - N/A   Clear
9:15 PM 82.4 °F 82.0 °F 57.2 °F 42% 29.79 in 10.0 mi North - - N/A   Clear
9:35 PM 82.4 °F 81.7 °F 55.4 °F 39% 29.80 in 10.0 mi North - - N/A   Clear
9:55 PM 80.6 °F 80.5 °F 55.4 °F 42% 29.81 in 10.0 mi North - - N/A   Clear
10:15 PM 80.6 °F 80.5 °F 55.4 °F 42% 29.81 in 10.0 mi North 6.9 mph - N/A   Clear
10:35 PM 78.8 °F - 55.4 °F 44% 29.81 in 10.0 mi North - - N/A   Clear
10:55 PM 78.8 °F - 57.2 °F 47% 29.81 in 10.0 mi North - - N/A   Clear
11:15 PM 77.0 °F - 59.0 °F 54% 29.81 in 10.0 mi North - - N/A   Clear
11:35 PM 75.2 °F - 57.2 °F 53% 29.81 in 10.0 mi North 5.8 mph - N/A   Clear
11:55 PM 73.4 °F - 57.2 °F 57% 29.81 in 10.0 mi North - - N/A   Clear